DW2762 Weather Reports


Display with metric or nautical units.
time (UTC)temp
F
wind
direction
speed
MPH
gust
MPH
rain 1hr
in
rain 24hr
in
rain mn
in
humidity
%
barometer
mb
20260904154609 84 205 7.0 15.0 0.00 0.00 0.00 46 1012.5
20260904151609 84 190 9.0 14.0 0.00 0.00 0.00 45 1013.1
20260904150113 85 200 5.0 15.0 0.00 0.00 0.00 45 1013.4
20260904143113 84 193 4.0 15.0 0.00 0.00 0.00 46 1013.7
20260904141613 85 215 5.0 11.0 0.00 0.00 0.00 45 1013.8
20260904140113 85 193 8.0 14.0 0.00 0.00 0.00 44 1014.0
20260904134613 84 211 7.0 13.0 0.00 0.00 0.00 45 1014.2
20260904133113 84 228 4.0 12.0 0.00 0.00 0.00 46 1014.5
20260904130112 84 229 8.0 14.0 0.00 0.00 0.00 46 1014.8
20260904121612 82 234 3.0 14.0 0.00 0.00 0.00 50 1015.5
20260904113112 82 232 5.0 16.0 0.00 0.00 0.00 48 1016.2
20260904111612 81 283 5.0 15.0 0.00 0.00 0.00 51 1016.4
20260904103111 81 192 7.0 18.0 0.00 0.00 0.00 52 1016.7
20260904101611 81 215 6.0 12.0 0.00 0.00 0.00 52 1017.0
20260904100111 78 288 3.0 12.0 0.00 0.00 0.00 55 1017.3
20260904094611 78 281 7.0 19.0 0.00 0.00 0.00 55 1017.6
20260904093111 78 260 6.0 15.0 0.00 0.00 0.00 56 1017.8
20260904091611 79 292 4.0 11.0 0.00 0.00 0.00 55 1017.9
20260904090111 78 202 6.0 12.0 0.00 0.00 0.00 55 1018.0
20260904081610 75 315 7.0 11.0 0.00 0.00 0.00 61 1018.2
20260904080110 74 267 3.0 8.0 0.00 0.00 0.00 63 1018.4
20260904074610 73 278 7.0 12.0 0.00 0.00 0.00 64 1018.6
20260904073111 73 296 4.0 8.0 0.00 0.00 0.00 66 1018.7
20260904071610 71 305 4.0 8.0 0.00 0.00 0.00 68 1018.7
20260904063110 65 150 2.0 3.0 0.00 0.00 0.00 78 1018.8
20260904061610 63 227 1.0 4.0 0.00 0.00 0.00 82 1018.9
20260904060109 61 217 0.0 0.0 0.00 0.00 0.00 85 1018.9
20260904053109 60 217 0.0 0.0 0.00 0.00 0.00 86 1018.9
20260904051609 60 217 0.0 0.0 0.00 0.00 0.00 86 1018.9
20260904044609 59 217 0.0 0.0 0.00 0.00 0.00 86 1018.8
20260904043109 59 217 0.0 0.0 0.00 0.00 0.00 85 1018.8
20260904041609 60 217 0.0 0.0 0.00 0.00 0.00 84 1018.7
20260904040109 60 217 0.0 0.0 0.00 0.00 0.00 83 1018.8
20260904034614 61 217 0.0 0.0 0.00 0.00 0.00 83 1018.8
20260904033114 60 217 0.0 0.0 0.00 0.00 0.00 83 1018.8
20260904030113 61 217 0.0 0.0 0.00 0.00 0.00 82 1019.0
20260904024613 61 217 0.0 0.0 0.00 0.00 0.00 82 1019.0
20260904023113 60 217 0.0 0.0 0.00 0.00 0.00 82 1019.0
20260904021613 60 217 0.0 0.0 0.00 0.00 0.00 82 1018.9
20260904020113 61 217 0.0 0.0 0.00 0.00 0.00 82 1018.9
20260904014613 61 217 0.0 0.0 0.00 0.00 0.00 81 1018.9
20260904013113 61 217 0.0 0.0 0.00 0.00 0.00 80 1019.0
20260904011613 61 217 0.0 0.0 0.00 0.00 0.00 80 1019.1
20260904010112 61 217 0.0 0.0 0.00 0.00 0.00 79 1019.3
20260904004612 61 217 0.0 0.0 0.00 0.00 0.00 79 1019.1
20260904001613 61 217 0.0 0.0 0.00 0.00 0.00 80 1019.5
20260903234612 62 217 0.0 0.0 0.00 0.00 0.00 79 1019.5
20260903233112 62 217 0.0 0.0 0.00 0.00 0.00 78 1019.7
20260903231612 62 217 0.0 0.0 0.00 0.00 0.00 77 1019.6
20260903224611 64 217 0.0 0.0 0.00 0.00 0.00 74 1019.5
20260903223111 64 217 0.0 0.0 0.00 0.00 0.00 72 1019.7
20260903221612 65 217 0.0 0.0 0.00 0.00 0.00 70 1019.6
20260903220111 65 217 0.0 4.0 0.00 0.00 0.00 70 1019.8
20260903214611 65 239 1.0 3.0 0.00 0.00 0.00 69 1019.8
20260903213111 66 227 0.0 5.0 0.00 0.00 0.00 68 1019.9
20260903210111 67 250 1.0 6.0 0.00 0.00 0.00 66 1019.9
20260903201610 69 264 4.0 12.0 0.00 0.00 0.00 62 1019.9
20260903200110 69 211 3.0 7.0 0.00 0.00 0.00 61 1019.9
20260903194610 69 269 4.0 9.0 0.00 0.00 0.00 61 1019.7
20260903193110 67 259 5.0 9.0 0.00 0.00 0.00 62 1019.5
20260903191610 66 265 1.0 2.0 0.00 0.00 0.00 65 1019.4
20260903190110 67 313 0.0 0.0 0.00 0.00 0.00 64 1019.3
20260903184609 67 313 0.0 0.0 0.00 0.00 0.00 63 1019.3
20260903180109 70 313 0.0 0.0 0.00 0.00 0.00 56 1019.0
20260903173109 72 317 1.0 2.0 0.00 0.00 0.00 52 1018.7
20260903171609 72 316 2.0 4.0 0.00 0.00 0.00 50 1018.7
20260903170109 73 313 3.0 8.0 0.00 0.00 0.00 49 1018.7
20260903164609 73 309 2.0 5.0 0.00 0.00 0.00 48 1018.7
20260903163108 74 323 3.0 7.0 0.00 0.00 0.00 46 1018.7
20260903161608 74 329 2.0 6.0 0.00 0.00 0.00 45 1018.6
20260903160108 74 309 6.0 10.0 0.00 0.00 0.00 43 1018.8